Regional Weather Roundup
Issued by NWS

Home | Current Version | Previous Version | Graphics & Text | Print | Product List | Glossary On
Versions: 1 2 3 4 5 6 7 8 9 10 11 12 13 14 15 16 17 18 19 20 21 22 23 24 25 26 27 28 29 30 31 32 33 34 35 36 37 38 39 40 41 42 43 44 45 46 47 48 49 50
000
ASUS43 KMPX 161601
RWRMN
WEATHER ROUNDUP FOR MINNESOTA
NATIONAL WEATHER SERVICE TWIN CITIES/CHANHASSEN MN
1100 AM CDT TUE SEP 16 2014


NOTE: "FAIR" INDICATES FEW OR NO CLOUDS BELOW 12,000 FEET WITH NO
SIGNIFICANT WEATHER AND/OR OBSTRUCTIONS TO VISIBILITY. N/A MEANS
CURRENT SKY AND/OR WEATHER CONDITIONS ARE NOT AVAILABLE.

MNZ060>063-068>070-161700-
   Twin Cities Metro

CITY           SKY/WX    TMP DP  RH WIND       PRES   REMARKS
TWIN CITIES    SUNNY     59  42  53 SW10      30.16F
ST PAUL        SUNNY     60  45  57 SW5       30.17F
CRYSTAL        SUNNY     62  42  47 VRB7      30.14F
BLAINE         SUNNY     63  45  51 SW8       30.14F
LAKEVILLE      SUNNY     59  45  58 SW5       30.16F
EDEN PRAIRIE   SUNNY     58  46  64 SW6       30.15F
SOUTH ST PAUL  SUNNY     61  42  49 SW9       30.16F
LAKE ELMO      FAIR      59  45  58 SW10      30.17F
$$
MNZ001>005-007-008-013>017-022>024-027-028-161700-
   Northwest Minnesota

CITY           SKY/WX    TMP DP  RH WIND       PRES   REMARKS
BEMIDJI        SUNNY     61  40  46 SW12G17   30.05S
HALLOCK        MOSUNNY   57  45  62 W5        30.00S
ROSEAU         PTSUNNY   55  45  67 SW5       30.00F
WARROAD        MOSUNNY   52  45  76 SW6       30.01R
THIEF RVR FALL SUNNY     57  41  54 SW12      30.03F
CROOKSTON      SUNNY     57  43  58 SW9       30.04F
FOSSTON        SUNNY     59  43  55 SW14G20   30.06F
DETROIT LAKES  SUNNY     59  41  51 SW8       30.09F
MOORHEAD       SUNNY     57  45  62 SW7       30.08F
PARK RAPIDS    SUNNY     61  40  45 W15       30.08F
MAHNOMEN       FAIR      58  39  49 SW12      30.08S
$$
MNZ006-009>011-018-025>026-161700-
   North Central Minnesota

CITY           SKY/WX    TMP DP  RH WIND       PRES   REMARKS
BAUDETTE       CLOUDY    57  43  59 VRB5      30.00S
FLAG ISLAND    PTSUNNY   55  45  67 NW5       29.97R
INTL FALLS     CLOUDY    55  42  61 W14       29.99R
WASKISH        CLOUDY    55  45  67 SW10G18   30.02S
BIG FORK       SUNNY     61  43  51 SW9G16    30.02F
LONGVILLE      SUNNY     61  43  51 SW7       30.07F
GRAND RAPIDS   SUNNY     57  39  51 W9G16     30.06F
CRANE LAKE     PTSUNNY   57  43  58 NW5       30.00S
ORR            SUNNY     61  39  44 W7        29.98S
COOK           SUNNY     61  43  51 W12G17    30.01S
WALKER         FAIR      58  40  49 W14       30.06F
$$
MNZ012-019>021-037-161700-
   Northeast Minnesota

CITY           SKY/WX    TMP DP  RH WIND       PRES   REMARKS
DULUTH         MOSUNNY   61  39  44 W20G26    30.06F
ELY            MOSUNNY   57  43  58 W8G16     29.99F
HIBBING        SUNNY     60  40  47 W13       30.04F
EVELETH        SUNNY     59  43  55 SW12      30.03F
DULUTH HARBOR  SUNNY     61  45  55 SW14      30.06F
TWO HARBORS    SUNNY     61  43  51 W12G20    30.01F
SILVER BAY     SUNNY     61  45  55 W8G16     29.99F
GRAND MARAIS     N/A     55  47  74 VRB6      29.97F
G MARAIS ARPRT PTSUNNY   55  39  54 W7        29.97F
$$
MNZ029>031-032-039>041-046>048-054>057-064-161700-
   West Central Minnesota

CITY           SKY/WX    TMP DP  RH WIND       PRES   REMARKS
FERGUS FALLS   SUNNY     61  37  41 S6        30.10F
WHEATON        SUNNY     61  43  51 S7        30.10F
MORRIS         SUNNY     63  45  51 SW7       30.10F
ALEXANDRIA     SUNNY     58  42  55 SW9       30.12F
ELBOW LAKE     FAIR      59  43  55 SW8       30.10F
WADENA         SUNNY     61  39  44 SW7       30.09F
GLENWOOD       SUNNY     61  43  51 SW9       30.12F
APPLETON       SUNNY     63  45  51 S6        30.10F
BENSON         SUNNY     59  46  63 W6        30.12F
ORTONVILLE     SUNNY     63  43  48 S9        30.09F
MADISON        SUNNY     64  46  52 SW10      30.11S
WILLMAR        FAIR      61  45  55 SW10      30.15S
$$
MNZ033>034-036-042>043-049>051-058-059-161700-
   Central Minnesota

CITY           SKY/WX    TMP DP  RH WIND       PRES   REMARKS
ST CLOUD       SUNNY     63  42  46 W12       30.13F
SAUK CENTRE    FAIR      60  42  51 SW8       30.12F
PAYNESVILLE    SUNNY     57  41  54 S8        30.14S
AITKIN         SUNNY     63  45  51 W5        30.08S
PINE RIVER     SUNNY     59  43  55 W6        30.11F
BRAINERD       SUNNY     58  40  51 W8        30.11F
STAPLES        SUNNY     61  39  44 SW9       30.10F
LONG PRAIRIE   FAIR      59  43  55 SW7       30.12F
LITTLE FALLS   SUNNY     59  37  44 SW6       30.12S
LITCHFIELD     SUNNY     61  46  59 SW7       30.14F
BUFFALO        SUNNY     59  44  58 SW7       30.16S
MAPLE LAKE     SUNNY     61  47  61 SW8       30.15F
$$
MNZ037-044-045-052-053-161700-
   East Central Minnesota

CITY           SKY/WX    TMP DP  RH WIND       PRES   REMARKS
PRINCETON      SUNNY     61  45  55 SW9       30.14S
MORA           SUNNY     55  43  62 W7        30.14S
CAMBRIDGE      SUNNY     63  45  51 SW7       30.12S
RUSH CITY      SUNNY     60  44  55 W5        30.13F
MOOSE LAKE     SUNNY     61  39  44 W9        30.07F
HINCKLEY       FAIR      59  43  55 SW9       30.12F
CLOQUET        SUNNY     61  37  41 W12       30.07F
MCGREGOR       SUNNY     59  41  51 W7        30.09F
$$
MNZ071>073-080-081-089-090-097-098-161700-
   Southwest Minnesota

CITY           SKY/WX    TMP DP  RH WIND       PRES   REMARKS
MONTEVIDEO     SUNNY     63  48  59 W9        30.13F
GRANITE FALLS  SUNNY     60  46  59 S8        30.15F
CANBY          SUNNY     61  46  56 SW12      30.12F
MARSHALL       SUNNY     61  43  51 SW15G21   30.13F
REDWOOD FALLS  SUNNY     61  45  55 SW15      30.15F
OLIVIA         SUNNY     59  45  58 SW13      30.13F
PIPESTONE      SUNNY     57  45  62 SW13      30.14F
WINDOM         SUNNY     59  45  58 S10G16    30.17F
WORTHINGTON    SUNNY     57  43  58 SW14      30.18F
JACKSON        SUNNY     59  41  51 SW13      30.19S
TRACY          SUNNY     60  45  58 SW12      30.15F
SLAYTON        SUNNY     57  43  58 S17       30.16F
$$
MNZ065>067-074>077-082>085-091>093-161700-
   South Central Minnesota

CITY           SKY/WX    TMP DP  RH WIND       PRES   REMARKS
MANKATO        SUNNY     59  43  55 W9        30.17F
NEW ULM        SUNNY     59  46  63 SW8       30.16F
ST JAMES       SUNNY     61  43  51 SW12      30.18F
FAIRMONT       SUNNY     61  41  48 SW9G16    30.18F
GLENCOE        SUNNY     60  43  52 SW7       30.15F
FARIBAULT      SUNNY     63  41  45 SW9       30.18F
OWATONNA       SUNNY     61  45  55 SW8       30.18F
WASECA         SUNNY     59  39  47 SW8       30.20F
ALBERT LEA     SUNNY     59  43  55 SW8       30.18F
$$
MNZ078>079-086>088-094>096-161700-
   Southeast Minnesota

CITY           SKY/WX    TMP DP  RH WIND       PRES   REMARKS
ROCHESTER      SUNNY     59  42  53 SW9       30.20F
RED WING       SUNNY     61  43  51 W3        30.16F
STANTON        SUNNY     60  44  57 SW9       30.16F
DODGE CENTER   SUNNY     57  45  62 SW9       30.18F
WINONA         SUNNY     57  46  67 CALM      30.19F
AUSTIN         SUNNY     57  45  62 SW8       30.19F
PRESTON        SUNNY     57  47  70 W6        30.20F
$$
ABBREVIATIONS USED IN REMARKS
   TC - TEMPERATURES IN CELSIUS
  WCI - WIND CHILL INDEX
   HX - HEAT INDEX
  VSB - VISIBILITY
$$



USA.gov is the U.S. government's official web portal to all federal, state and local government web resources and services.